ZHONGXING-2C

Last updated on Sun Apr 12 2026 00:02:54 GMT+0000 (Coordinated Universal Time)

1 41021U 15063A 26101.54114414 -.00000322 00000+0 00000+0 0 9993 2 41021 0.1014 95.6867 0005674 114.0298 288.3252 1.00272130 38315
UTC large
Height (km)
Speed (km/s)
/
Latitude / Longitude
Inclination (degrees)
Orbital Period (minutes)
Azimuth
Elevation
Range (km)
Doppler Factor

Next 0 passes for location: London (51.5072 / 0.1276)

Sorry there are no passes over London.
ZHONGXING-2C